• In Netherlands
  • List of Countries
  • For 7 days
  • Water Temperature
  • Satellite Maps
  • Weather Map
  • Weather Widgets
  • user-avatar
    Login

    Hourly Weather Golden Sands

    Today, 20 February, Monday

    Time Temperature Precipitation Wind Pressure Humidity
    00:00 +3°C° 1.8 mm 5 mps 764 mmHg 95%
    01:00 +3°C° 1.8 mm 5 mps 764 mmHg 96%
    02:00 +4°C° 0 mm 4 mps 763 mmHg 97%
    03:00 +2°C° 0.7 mm 5 mps 763 mmHg 96%
    04:00 +2°C° 0.7 mm 6 mps 763 mmHg 95%
    05:00 +2°C° 0.7 mm 6 mps 762 mmHg 95%
    06:00 +1°C° 0 mm 6 mps 762 mmHg 93%
    07:00 0°C° 0 mm 7 mps 762 mmHg 92%
    08:00 0°C° 0 mm 7 mps 762 mmHg 89%
    09:00 0°C° 0 mm 8 mps 762 mmHg 88%
    10:00 +1°C° 0 mm 8 mps 763 mmHg 86%
    11:00 +1°C° 0 mm 8 mps 763 mmHg 85%
    12:00 +1°C° 0 mm 8 mps 763 mmHg 83%
    13:00 +2°C° 0 mm 8 mps 763 mmHg 82%
    14:00 +2°C° 0 mm 8 mps 763 mmHg 81%
    15:00 +2°C° 0 mm 8 mps 763 mmHg 83%
    16:00 +1°C° 0 mm 8 mps 763 mmHg 84%
    17:00 +1°C° 0 mm 8 mps 763 mmHg 86%
    18:00 +2°C° 0 mm 7 mps 763 mmHg 87%
    19:00 0°C° 0 mm 7 mps 763 mmHg 88%
    20:00 0°C° 0 mm 7 mps 763 mmHg 90%
    21:00 0°C° 0 mm 7 mps 763 mmHg 89%
    22:00 -1°C° 0 mm 7 mps 763 mmHg 89%
    23:00 -1°C° 0 mm 7 mps 763 mmHg 89%

    Tomorrow, 21 February, Tuesday

    Time Temperature Precipitation Wind Pressure Humidity
    00:00 -1°C° 0 mm 7 mps 763 mmHg 89%
    01:00 -1°C° 0 mm 7 mps 763 mmHg 89%
    02:00 -1°C° 0 mm 7 mps 763 mmHg 89%
    03:00 -1°C° 0 mm 7 mps 763 mmHg 88%
    04:00 -1°C° 0 mm 7 mps 762 mmHg 87%
    05:00 -2°C° 0 mm 7 mps 762 mmHg 87%
    06:00 -1°C° 0 mm 7 mps 762 mmHg 85%
    07:00 -1°C° 0 mm 6 mps 762 mmHg 83%
    08:00 -1°C° 0 mm 6 mps 762 mmHg 81%
    09:00 +1°C° 0 mm 6 mps 762 mmHg 76%
    10:00 +3°C° 0 mm 6 mps 762 mmHg 72%
    11:00 +4°C° 0 mm 6 mps 762 mmHg 67%
    12:00 +5°C° 0 mm 6 mps 761 mmHg 65%
    13:00 +7°C° 0 mm 6 mps 761 mmHg 64%
    14:00 +7°C° 0 mm 6 mps 760 mmHg 62%
    15:00 +7°C° 0 mm 6 mps 760 mmHg 65%
    16:00 +6°C° 0 mm 5 mps 760 mmHg 68%
    17:00 +5°C° 0 mm 5 mps 759 mmHg 71%
    18:00 +5°C° 0 mm 5 mps 759 mmHg 74%
    19:00 +3°C° 0 mm 5 mps 759 mmHg 77%
    20:00 +3°C° 0 mm 5 mps 759 mmHg 80%
    21:00 +3°C° 0 mm 5 mps 759 mmHg 79%
    22:00 +3°C° 0 mm 6 mps 759 mmHg 78%
    23:00 +3°C° 0 mm 6 mps 759 mmHg 77%

    Day after tomorrow, 22 February, Wednesday

    Time Temperature Precipitation Wind Pressure Humidity
    00:00 +3°C° 0 mm 6 mps 759 mmHg 76%
    01:00 +3°C° 0 mm 6 mps 759 mmHg 75%
    02:00 +3°C° 0 mm 6 mps 759 mmHg 74%
    03:00 +3°C° 0 mm 7 mps 758 mmHg 77%
    04:00 +2°C° 0 mm 7 mps 758 mmHg 80%
    05:00 +2°C° 0 mm 7 mps 758 mmHg 83%
    06:00 +2°C° 0 mm 7 mps 759 mmHg 84%
    07:00 +2°C° 0 mm 7 mps 759 mmHg 86%
    08:00 +3°C° 0 mm 7 mps 759 mmHg 87%
    09:00 +4°C° 0 mm 7 mps 760 mmHg 81%
    10:00 +7°C° 0 mm 6 mps 760 mmHg 76%
    11:00 +9°C° 0 mm 6 mps 761 mmHg 70%
    12:00 +9°C° 0 mm 5 mps 761 mmHg 69%
    13:00 +10°C° 0 mm 5 mps 761 mmHg 68%
    14:00 +11°C° 0 mm 4 mps 760 mmHg 67%
    15:00 +11°C° 0 mm 4 mps 761 mmHg 71%
    16:00 +10°C° 0 mm 4 mps 761 mmHg 75%
    17:00 +10°C° 0 mm 3 mps 761 mmHg 80%
    18:00 +8°C° 0 mm 4 mps 761 mmHg 83%
    19:00 +7°C° 0 mm 4 mps 761 mmHg 86%
    20:00 +6°C° 0 mm 4 mps 761 mmHg 89%
    21:00 +6°C° 0 mm 4 mps 761 mmHg 89%
    22:00 +6°C° 0 mm 4 mps 761 mmHg 88%
    23:00 +6°C° 0 mm 5 mps 761 mmHg 88%

    23 February, Thursday

    Time Temperature Precipitation Wind Pressure Humidity
    00:00 +6°C° 0 mm 5 mps 761 mmHg 87%
    01:00 +6°C° 0 mm 5 mps 761 mmHg 86%
    02:00 +6°C° 0 mm 4 mps 760 mmHg 85%
    03:00 +6°C° 0 mm 5 mps 760 mmHg 83%
    04:00 +6°C° 0 mm 5 mps 760 mmHg 81%
    05:00 +6°C° 0 mm 5 mps 759 mmHg 80%
    06:00 +6°C° 0 mm 5 mps 760 mmHg 78%
    07:00 +6°C° 0 mm 5 mps 760 mmHg 76%
    08:00 +7°C° 0 mm 5 mps 760 mmHg 74%
    09:00 +9°C° 0 mm 6 mps 760 mmHg 69%
    10:00 +11°C° 0 mm 6 mps 761 mmHg 63%
    11:00 +14°C° 0 mm 6 mps 761 mmHg 57%
    12:00 +14°C° 0 mm 6 mps 760 mmHg 56%
    13:00 +15°C° 0 mm 6 mps 760 mmHg 55%
    14:00 +15°C° 0 mm 6 mps 760 mmHg 54%
    15:00 +14°C° 0 mm 6 mps 760 mmHg 58%
    16:00 +13°C° 0 mm 6 mps 760 mmHg 62%
    17:00 +13°C° 0 mm 5 mps 760 mmHg 67%
    18:00 +12°C° 0 mm 5 mps 760 mmHg 70%
    19:00 +10°C° 0 mm 5 mps 760 mmHg 74%
    20:00 +9°C° 0 mm 5 mps 761 mmHg 77%
    21:00 +8°C° 0 mm 5 mps 760 mmHg 80%
    22:00 +8°C° 0 mm 5 mps 760 mmHg 82%
    23:00 +8°C° 0 mm 5 mps 760 mmHg 85%

    24 February, Friday

    Time Temperature Precipitation Wind Pressure Humidity
    00:00 +7°C° 0 mm 5 mps 760 mmHg 87%
    01:00 +7°C° 0 mm 6 mps 759 mmHg 89%
    02:00 +7°C° 0 mm 6 mps 759 mmHg 92%
    03:00 +7°C° 0 mm 6 mps 759 mmHg 92%
    04:00 +5°C° 0 mm 6 mps 758 mmHg 93%
    05:00 +5°C° 0 mm 7 mps 758 mmHg 94%
    06:00 +5°C° 0 mm 7 mps 758 mmHg 92%
    07:00 +5°C° 0 mm 7 mps 758 mmHg 91%
    08:00 +5°C° 0 mm 7 mps 759 mmHg 89%
    09:00 +8°C° 0 mm 6 mps 759 mmHg 80%
    10:00 +10°C° 0 mm 6 mps 759 mmHg 71%
    11:00 +13°C° 0 mm 6 mps 759 mmHg 62%
    12:00 +14°C° 0 mm 6 mps 758 mmHg 59%
    13:00 +15°C° 0 mm 6 mps 758 mmHg 56%
    14:00 +16°C° 0 mm 6 mps 758 mmHg 53%
    15:00 +15°C° 0 mm 6 mps 758 mmHg 57%
    16:00 +14°C° 0 mm 6 mps 757 mmHg 62%
    17:00 +13°C° 0 mm 5 mps 757 mmHg 66%
    18:00 +11°C° 0 mm 6 mps 757 mmHg 69%
    19:00 +10°C° 0 mm 6 mps 757 mmHg 73%
    20:00 +9°C° 0 mm 6 mps 758 mmHg 76%
    21:00 +9°C° 0 mm 7 mps 757 mmHg 77%
    22:00 +9°C° 0 mm 7 mps 757 mmHg 78%
    23:00 +9°C° 0 mm 7 mps 757 mmHg 79%

    25 February, Saturday

    Time Temperature Precipitation Wind Pressure Humidity
    00:00 +9°C° 0 mm 7 mps 757 mmHg 80%
    01:00 +9°C° 0 mm 8 mps 756 mmHg 81%
    02:00 +7°C° 0 mm 8 mps 756 mmHg 82%
    03:00 +9°C° 0 mm 8 mps 755 mmHg 81%
    04:00 +9°C° 0 mm 8 mps 755 mmHg 80%
    05:00 +9°C° 0 mm 8 mps 755 mmHg 79%
    06:00 +9°C° 0.2 mm 8 mps 755 mmHg 81%
    07:00 +9°C° 0.2 mm 7 mps 755 mmHg 82%
    08:00 +9°C° 0.2 mm 7 mps 756 mmHg 84%
    09:00 +10°C° 0.3 mm 7 mps 756 mmHg 81%
    10:00 +11°C° 0.3 mm 7 mps 757 mmHg 78%
    11:00 +11°C° 0.3 mm 7 mps 757 mmHg 76%
    12:00 +12°C° 0 mm 7 mps 757 mmHg 66%
    13:00 +13°C° 0 mm 8 mps 758 mmHg 56%
    14:00 +15°C° 0 mm 8 mps 758 mmHg 47%
    15:00 +14°C° 0 mm 7 mps 758 mmHg 51%
    16:00 +13°C° 0 mm 6 mps 758 mmHg 55%
    17:00 +11°C° 0 mm 6 mps 759 mmHg 58%
    18:00 +10°C° 0 mm 5 mps 759 mmHg 62%
    19:00 +9°C° 0 mm 5 mps 760 mmHg 65%
    20:00 +8°C° 0 mm 4 mps 760 mmHg 68%
    21:00 +8°C° 0 mm 4 mps 760 mmHg 68%
    22:00 +8°C° 0 mm 4 mps 760 mmHg 68%
    23:00 +8°C° 0 mm 4 mps 760 mmHg 68%
    Show more